Location: DARK SKY Beskydy - Park tmavé oblohy, www.darkskybeskydy.cz
(49.4926°N, 18.5016°E)
Time: 10:54:34
(UTC+01:00)

BlueWalker 3 - Pass Details

Date: 09 December 2022
Orbit: 499 x 517 km, 53.2° (Epoch: 29 January)

Event Time Altitude Azimuth Distance (km) Brightness Sun altitude
Rises 18:05:56 0° 293° (WNW) 2,628 6.5 -21.5°
Reaches altitude 10° 18:08:14 10° 285° (WNW) 1,735 5.6 -21.9°
Maximum altitude 18:11:52 37° 217° (SW) 804 3.3 -22.5°
Enters shadow 18:13:14 28° 174° (S) 986 3.4 -22.7°
